Weather History for Chillicothe, MO

Change the Weather History Date:

Friday, May 16, 2014

  Actual Average (KIRK) Record (KIRK)
Temperature  
Mean Temperature 46 °F 62 °F  
Max Temperature 60 °F 72 °F 91 °F (1944)
Min Temperature 34 °F 52 °F 34 °F (1956)
Degree Days  
Heating Degree Days 20 5  
Month to date heating degree days 106  
Since 1 July heating degree days 5796  
Cooling Degree Days 0 2  
Month to date cooling degree days 18  
Year to date cooling degree days 25  
Moisture  
Dew Point 31 °F    
Average Humidity 60    
Maximum Humidity 89    
Minimum Humidity 32    
Precipitation  
Precipitation 0.00 in 0.14 in 1.37 in (1925)
Month to date precipitation 2.61  
Year to date precipitation 11.80  
Sea Level Pressure  
Sea Level Pressure 30.14 in    
Wind  
Wind Speed 2 mph (NW)    
Max Wind Speed 12 mph    
Max Gust Speed -    
T = Trace of Precipitation, MM = Missing Value Source: NWS Daily Summary

Daily Weather History Graph

Daily Weather History Graph

Search for Another Location

Airport:

Trip Planner

Search our weather history database for the weather conditions in past years. The results will help you decide how hot, cold, wet, or windy it might be!

Date:

Astronomy

May. 16, 2014 Rise Set
Actual Time 5:58 AM CDT 8:23 PM CDT
Civil Twilight 5:27 AM CDT 8:54 PM CDT
Nautical Twilight 4:50 AM CDT 9:32 PM CDT
Astronomical Twilight 4:08 AM CDT 10:14 PM CDT
Moon 10:30 PM CDT (5/16) 7:41 AM CDT (5/16)
Length of Visible Light 15h 26m
Length of Day
14h 24m
Waning Gibbous, 95% of the Moon is Illuminated
May 16
Waning Gibbous
May 21
Last Quarter
May 28
New
Jun 5
First Quarter
Jun 12
Full

Hourly Weather History & Observations

Time (CDT) Temp. Windchill Dew Point Humidity Pressure Visibility Wind Dir Wind Speed Gust Speed Precip Events Conditions
12:52 AM 37.9 °F - 34.0 °F 86% 30.15 in - Calm Calm - N/A   Unknown
1:52 AM 37.0 °F - 34.0 °F 89% 30.14 in - Calm Calm - N/A   Unknown
2:52 AM 36.0 °F - 33.1 °F 89% 30.13 in - Calm Calm - N/A   Unknown
3:52 AM 37.9 °F - 34.0 °F 86% 30.13 in - Calm Calm - N/A   Unknown
4:52 AM 37.9 °F - 33.1 °F 83% 30.13 in - Calm Calm - N/A   Unknown
5:52 AM 34.0 °F - 30.9 °F 89% 30.13 in - Calm Calm - N/A   Unknown
6:52 AM 37.9 °F - 33.1 °F 83% 30.14 in - Calm Calm - N/A   Unknown
7:52 AM 44.1 °F 40.8 °F 33.1 °F 65% 30.14 in - NW 5.8 mph - N/A   Unknown
8:52 AM 48.0 °F - 32.0 °F 54% 30.14 in - NW 4.6 mph - N/A   Unknown
9:52 AM 50.0 °F - 28.9 °F 44% 30.15 in - WNW 8.1 mph - N/A   Unknown
10:52 AM 52.0 °F - 28.0 °F 40% 30.15 in - NW 8.1 mph - N/A   Unknown
11:52 AM 53.1 °F - 28.0 °F 38% 30.15 in - North 5.8 mph - N/A   Unknown
12:52 PM 55.0 °F - 28.0 °F 35% 30.13 in - Variable 6.9 mph - N/A   Unknown
1:52 PM 57.9 °F - 30.9 °F 36% 30.12 in - NNE 11.5 mph - N/A   Unknown
3:52 PM 57.0 °F - 27.0 °F 32% 30.11 in - WNW 5.8 mph - N/A   Unknown
4:52 PM 55.9 °F - 27.0 °F 33% 30.11 in - WNW 4.6 mph - N/A   Unknown
5:52 PM 55.9 °F - 28.0 °F 34% 30.12 in - Calm Calm - N/A   Unknown
6:52 PM 55.9 °F - 28.0 °F 34% 30.11 in - WNW 5.8 mph - N/A   Unknown
7:52 PM 54.0 °F - 30.0 °F 40% 30.12 in - Calm Calm - N/A   Unknown
8:52 PM 48.0 °F - 35.1 °F 61% 30.13 in - Calm Calm - N/A   Unknown
9:52 PM 44.1 °F - 36.0 °F 73% 30.15 in - Calm Calm - N/A   Unknown
10:52 PM 41.0 °F - 35.1 °F 79% 30.16 in - Calm Calm - N/A   Unknown
11:52 PM 41.0 °F - 36.0 °F 82% 30.17 in - Calm Calm - N/A   Unknown